User: anonymous   Login
Location: D�pe
(52.6057°N, 8.1808°E)
Time: 21:46:38
(UTC+00:00)
Language:

HJ-1C - Orbit

View from above orbital plane
View from above orbital plane
View from above satellite
View from above satellite

Ground track
Ground track

The orbit data is extracted from the following two-line orbital elements,

1 38997U 12064A   21016.43449606  .00002616  00000-0  60394-4 0  9996
2 38997  97.1348  48.4549 0008024 321.4650 151.9566 15.43411487458625
Epoch (UTC): 16 January 2021 10:25:40
Eccentricity: 0.0008024
inclination: 97.1348°
perigee height: 430 km
apogee height: 441 km
right ascension of ascending node: 48.4549°
argument of perigee: 321.4650°
revolutions per day: 15.43411487
mean anomaly at epoch: 151.9566°
orbit number at epoch: 45862

The dashed part of the orbit path shows where the satellite is in the earth's shadow,  

DLR